Humidity-temperature Sensor

Selected Measurement Type: Relative Humidity

 
Relative Humidity [%]     6 entries per hour
Showing data from 12/8/2016 (00:00:00 Z) to 12/7/2016 (00:01:00 Z)
Previous Next [ Day | 3-Days | 7-Days ]
First Last
Prev [ Day | 3-Days | 7-Days ] Next
First Last

Start Time:     :
End Time:     :     
Time (in GMT) :00 :50 :40 :30 :20 :10
Previous Next [ Day | 3-Days | 7-Days ]
First Last
Prev [ Day | 3-Days | 7-Days ] Next
First Last


123 => good data
MM => data is determined as missing
-- => data not received/configured
Back to Top Back to Top
12/8/2016 00:00 to 23:10 78.81 77.82 77.38 75.95 76.88 77.61
12/7/2016 23:00 to 22:10 -- -- -- -- -- --
12/7/2016 22:00 to 21:10 77.84 76.96 76.54 78.37 77.74 77.84
12/7/2016 21:00 to 20:10 77.86 76.75 76.50 78.52 79.80 80.01
12/7/2016 20:00 to 19:10 80.26 81.75 80.62 79.63 79.57 80.37
12/7/2016 19:00 to 18:10 80.18 79.51 80.14 80.05 81.12 80.58
12/7/2016 18:00 to 17:10 78.98 78.45 79.61 80.53 79.15 79.36
12/7/2016 17:00 to 16:10 80.68 81.31 82.22 80.91 82.41 80.64
12/7/2016 16:00 to 15:10 80.11 80.75 79.78 80.30 80.32 80.37
12/7/2016 15:00 to 14:10 82.43 81.31 83.21 82.68 84.00 84.63
12/7/2016 14:00 to 13:10 86.23 87.66 87.85 87.73 87.62 88.12
12/7/2016 13:00 to 12:10 87.47 87.26 86.63 86.78 87.54 86.80
12/7/2016 12:00 to 11:10 86.68 86.40 87.28 88.10 90.44 90.50
12/7/2016 11:00 to 10:10 89.37 88.46 89.11 89.28 88.99 87.73
12/7/2016 10:00 to 9:10 88.40 89.22 85.69 86.67 87.54 87.66
12/7/2016 09:00 to 8:10 88.76 83.00 82.72 83.65 84.85 84.13
12/7/2016 08:00 to 7:10 83.79 83.14 84.19 84.38 81.97 80.94
12/7/2016 07:00 to 6:10 81.88 81.54 80.05 80.81 80.70 80.64
12/7/2016 06:00 to 5:10 82.20 81.21 80.49 83.35 85.35 87.56
12/7/2016 05:00 to 4:10 89.09 90.16 90.69 91.05 82.03 80.53
12/7/2016 04:00 to 3:10 80.89 82.22 80.64 79.71 80.58 80.14
12/7/2016 03:00 to 2:10 81.27 83.29 88.88 89.28 84.24 82.05
12/7/2016 02:00 to 1:10 81.35 80.89 83.08 81.75 81.19 83.39
12/7/2016 01:00 to 0:10 82.76 82.79 83.16 81.25 82.13 83.71